Location: Unspecified
(0.0000°N, 0.0000°E)
Time: 01:27:59
(UTC+00:00)

Explorer 7 - Visible Passes

Search period start: 20 July 2019 00:00
Search period end: 30 July 2019 00:00
Orbit: 485 x 680 km, 50.3° (Epoch: 19 July)

Date Brightness Start Highest point End Pass type
(mag) Time Alt. Az. Time Alt. Az. Time Alt. Az.
20 Jul 9.9 19:57:01 10° W 19:59:20 15° NW 20:01:36 10° NNW visible
22 Jul 7.7 18:24:55 10° SW 18:29:07 54° NW 18:33:03 10° NNE visible
23 Jul 10.2 04:48:27 10° NNE 04:50:26 13° NE 04:52:28 10° E visible
23 Jul 9.5 18:30:35 10° WSW 18:34:06 25° NW 18:37:27 10° N visible
24 Jul 9.3 04:51:53 10° N 04:55:26 26° NE 04:59:11 10° ESE visible
24 Jul 10.3 18:37:28 10° WNW 18:39:06 12° NW 18:40:42 10° NNW visible
25 Jul 7.6 04:56:17 10° NNW 05:00:24 56° NE 05:04:50 10° SE visible
26 Jul 6.8 05:01:15 10° NW 05:05:25 66° SW 05:09:54 10° SSE visible
27 Jul 9.9 03:31:25 14° ENE 03:31:25 14° ENE 03:32:46 10° E visible
27 Jul 7.7 05:07:59 17° WNW 05:10:28 30° SW 05:14:26 10° S visible
28 Jul 8.6 05:15:45 15° SW 05:15:45 15° SW 05:18:11 10° SSW visible
